Wind_Speed
13 14 14 15 15 16 17 18 19 19 17 15 13 13 11 9 9 6 10 5 10 9 10 9 14 16 14 15 16 14 6 5 3 19 5 6 4 8 17 27 24 28 10 23 25
14 15 15 16 17 18 20 20 21 18 16 14 15 13 12 9 11 16 13 11 11 10 14 13 11 12 11 13 12 10 7 7 16 19 12 12 1 10 16 23 11 14 14 19 23
14 15 16 17 18 20 21 24 20 19 17 15 14 13 9 6 8 2 13 15 12 14 14 14 11 11 13 14 14 14 9 28 20 3 10 10 13 3 29 18 9 21 13 13 18
14 15 17 18 19 22 22 25 20 20 18 15 13 10 2 3 3 5 8 11 14 16 15 12 12 11 12 14 15 15 15 25 11 7 10 11 17 11 8 12 17 23 17 15 15
15 15 17 18 20 22 23 25 20 21 18 13 11 4 3 6 4 3 9 12 17 17 17 12 12 11 13 14 14 13 15 18 10 11 13 6 10 13 27 18 22 17 15 15 14
15 16 17 19 21 22 23 25 22 21 17 10 7 2 4 9 6 9 13 16 16 17 16 14 10 12 15 15 18 16 15 15 19 11 14 10 12 16 14 24 25 21 17 15 16
15 17 18 19 21 22 23 25 23 22 13 7 2 2 9 12 3 9 14 15 16 16 11 14 15 12 14 14 18 15 19 14 14 17 20 6 13 4 8 20 8 16 15 15 15
16 18 19 19 21 22 23 25 24 21 9 4 2 2 7 6 5 12 14 15 15 13 13 9 13 13 17 14 20 13 16 14 17 27 4 4 4 13 17 19 12 13 13 13 13
18 19 20 21 21 22 24 23 26 12 5 3 3 6 10 4 10 14 17 14 10 9 9 9 7 13 15 14 14 15 16 20 12 35 10 4 8 16 22 22 13 14 13 14 14
20 20 21 22 22 23 23 22 19 6 2 6 11 8 10 9 12 15 17 12 11 9 8 9 7 12 13 14 13 17 14 14 7 27 12 10 9 13 15 9 11 15 14 10 14
22 20 21 22 22 22 23 9 4 4 10 11 3 12 4 3 6 12 16 15 12 11 13 13 11 14 17 18 18 21 19 14 32 10 4 9 10 6 7 1 10 12 23 16 12
23 23 22 21 21 17 16 8 8 9 11 17 21 20 20 9 10 13 18 13 15 14 14 13 15 18 17 17 17 16 16 16 12 9 4 9 12 12 17 16 32 24 11 11 12
23 24 24 21 20 11 10 9 8 12 7 15 21 19 16 15 16 16 19 19 16 16 16 16 12 17 15 16 15 15 14 15 14 14 5 11 13 15 9 21 22 23 5 6 11
24 24 23 24 10 13 13 2 8 8 6 12 14 9 15 15 15 22 24 19 14 16 17 16 17 17 8 16 14 14 13 12 13 13 12 10 10 11 16 15 5 28 6 5 9
26 25 21 18 16 10 6 8 9 8 6 8 15 12 14 15 3 20 26 20 20 18 12 17 13 15 17 12 14 14 12 7 8 12 14 17 10 7 10 7 9 11 30 6 12
27 26 23 8 8 15 13 11 10 6 9 10 12 11 15 19 14 8 21 18 17 20 18 17 16 12 14 14 13 12 14 6 12 12 13 15 15 7 7 11 5 12 4 13 11
30 25 23 12 10 10 7 9 6 9 8 9 14 14 17 17 18 13 19 20 18 16 18 18 18 12 10 13 13 11 12 9 11 11 13 12 16 12 18 16 12 13 12 14 20
33 27 19 19 14 11 11 8 11 10 23 11 3 13 19 20 18 19 16 18 23 23 13 14 14 20 16 16 14 16 14 12 15 7 3 11 3 14 16 12 9 12 15 17 20
33 16 13 14 16 12 7 12 9 17 17 10 11 14 13 16 17 18 18 19 21 23 19 14 18 11 19 14 15 13 12 17 18 19 9 11 12 16 8 12 10 11 12 13 20
18 15 20 15 16 14 9 17 17 24 19 13 10 14 15 17 12 13 17 18 20 22 20 20 14 14 10 15 16 17 11 10 10 16 16 10 10 7 9 8 3 9 10 11 18
9 5 6 20 15 8 14 20 19 25 13 7 11 16 18 19 13 18 18 16 18 20 21 17 14 15 11 12 14 11 15 14 12 12 13 11 5 4 3 5 6 8 10 13 17
8 7 15 16 9 11 15 22 21 21 15 13 14 18 19 17 14 8 15 16 15 16 19 14 8 13 17 12 12 17 15 17 9 13 12 8 4 16 7 4 12 17 11 12 17
5 9 13 15 10 13 18 24 23 22 16 12 14 16 16 16 13 11 17 11 10 13 5 14 9 11 13 14 14 17 16 15 13 13 14 9 3 12 17 3 19 12 12 11 18
5 4 7 8 12 19 17 19 22 22 18 16 15 16 16 14 15 13 16 10 5 10 8 6 9 11 14 11 6 9 12 14 15 10 14 15 7 6 7 9 14 15 8 14 17
5 6 12 7 11 17 19 19 21 18 12 16 18 18 16 16 15 17 17 18 10 4 9 8 13 15 19 17 13 13 19 17 18 16 13 10 7 15 11 6 4 6 3 11 13
8 7 12 14 14 16 12 20 19 18 18 18 18 17 15 15 14 14 15 15 14 13 12 13 12 13 18 20 18 13 15 10 14 16 19 17 18 11 11 5 5 9 9 11 11
18 15 7 10 15 12 12 15 19 19 19 21 15 17 17 16 17 16 16 9 11 11 7 14 12 12 16 18 18 16 9 13 14 13 14 3 15 17 11 6 13 16 14 14 13
Wind_Direction
12 10 8 6 2 357 351 344 339 334 332 330 328 320 313 306 306 286 240 229 202 226 193 208 222 240 255 261 259 278 51 353 160 276 146 199 93 206 73 76 351 341 132 129 144
10 4 3 3 358 354 351 345 340 339 337 333 330 319 313 313 291 258 244 241 208 204 190 206 218 231 243 257 248 236 90 281 225 220 350 326 334 25 90 96 156 310 325 132 142
4 360 359 357 355 350 349 347 343 341 335 330 331 323 327 350 279 119 205 224 221 199 197 211 234 236 250 254 242 247 178 223 253 7 310 332 303 207 126 129 168 212 196 170 153
358 355 353 352 350 348 345 346 342 340 335 332 330 328 359 277 356 115 184 208 189 184 220 213 237 235 258 254 253 245 272 195 290 332 305 313 346 336 350 168 176 200 170 177 162
353 350 346 347 345 343 342 343 339 338 336 335 333 339 0 236 255 142 156 164 173 186 220 212 227 240 250 259 255 255 267 283 287 291 300 337 310 349 9 142 160 173 177 181 149
348 345 343 343 340 339 336 338 334 336 334 333 331 344 266 255 108 147 149 157 171 189 218 217 229 235 261 283 286 273 250 260 274 293 284 287 41 58 -0 312 148 154 168 169 157
345 342 342 339 335 334 331 330 326 330 329 320 301 345 259 256 157 162 170 174 180 208 215 222 242 257 247 265 264 272 272 274 272 256 254 287 51 78 232 262 159 148 167 169 157
345 341 338 335 333 331 326 322 318 323 315 301 269 273 270 168 202 186 190 197 205 217 243 229 239 273 271 279 282 265 268 266 260 301 233 224 148 229 218 230 154 167 175 158 157
345 340 338 334 331 327 322 314 310 315 288 243 281 228 268 169 209 198 200 203 194 221 233 247 248 246 252 249 263 250 251 242 33 300 282 211 157 206 217 216 179 169 176 163 159
347 341 337 333 331 329 321 313 297 287 289 239 265 260 235 234 191 192 204 205 201 206 196 233 230 243 233 244 246 256 262 98 64 269 206 247 267 161 235 169 186 184 162 170 168
350 341 336 332 328 328 322 309 239 188 224 255 159 248 133 141 147 188 194 203 203 213 224 194 219 228 237 225 260 286 302 320 191 217 279 286 289 327 192 177 229 194 145 177 173
349 342 334 328 324 318 304 282 51 323 297 271 260 252 257 171 196 203 191 199 204 219 219 228 232 245 247 258 267 275 285 288 294 276 251 296 295 291 82 73 293 298 183 157 145
347 341 335 325 318 293 265 318 327 320 271 281 241 227 212 213 231 192 194 206 204 225 224 228 245 212 242 257 253 265 269 285 278 303 246 265 267 265 112 147 242 284 135 169 163
345 337 336 328 301 327 278 28 316 332 278 257 191 224 204 200 236 240 185 211 239 229 229 248 240 261 253 240 250 255 252 249 285 292 281 285 290 279 150 183 235 319 173 179 124
343 334 326 326 299 283 351 312 320 279 282 114 159 127 184 194 156 204 179 211 225 232 241 243 236 241 244 241 234 254 269 299 288 277 275 270 272 35 77 72 83 346 283 118 116
336 331 321 315 261 267 298 303 281 234 240 185 144 196 191 209 239 177 196 204 230 247 243 250 242 233 241 234 246 241 261 243 272 268 262 253 259 203 132 213 216 206 160 103 101
328 321 307 280 238 346 303 269 224 237 216 237 177 200 209 207 218 202 198 197 218 222 241 237 243 229 246 253 217 226 248 235 245 236 246 293 238 260 139 161 175 174 120 119 117
324 314 284 253 256 271 262 230 235 245 241 310 305 202 206 217 195 203 204 217 218 233 242 221 234 220 210 229 238 206 239 239 247 237 272 353 21 294 113 110 117 130 149 140 135
326 308 238 250 228 231 241 221 224 241 284 277 214 248 259 239 251 195 204 218 218 222 242 259 244 212 209 193 238 241 213 251 269 282 243 199 233 219 132 116 126 138 157 144 141
322 297 258 212 188 199 228 239 236 253 287 295 269 260 243 249 215 242 204 215 227 219 226 256 275 282 197 191 208 246 226 233 240 263 275 254 229 134 62 31 127 157 164 142 136
290 252 132 159 176 213 222 232 239 264 300 265 275 262 269 267 235 218 242 228 214 223 227 224 255 273 254 202 234 209 239 250 252 235 250 271 65 134 119 242 302 205 167 148 139
293 249 156 166 198 223 230 235 259 262 233 229 264 281 287 284 288 275 261 251 227 211 222 218 231 243 263 200 226 259 226 228 242 248 266 284 164 149 151 301 256 233 158 160 145
285 266 174 201 230 230 234 246 247 252 254 247 234 256 264 278 286 267 267 289 352 188 283 218 213 250 252 266 197 216 235 220 222 268 279 291 166 155 159 129 221 149 152 137 127
279 249 229 198 246 259 257 242 234 243 251 233 248 237 259 245 257 264 267 264 167 270 24 344 279 220 247 235 6 234 239 253 247 228 243 249 112 72 359 5 20 338 153 118 137
246 266 350 239 222 232 256 267 271 226 205 249 260 246 236 245 245 240 253 278 184 183 258 257 262 261 241 268 269 265 243 220 248 238 254 282 146 182 153 127 28 328 146 135 138
308 342 343 304 312 295 254 242 257 272 224 225 236 254 238 255 242 246 241 258 278 189 210 249 244 260 267 274 262 230 256 259 227 245 244 256 106 162 145 170 224 260 171 167 157
354 332 308 295 287 274 277 267 237 260 275 239 214 235 246 239 253 249 267 298 297 316 196 217 240 239 253 250 263 270 256 276 253 266 282 334 147 158 171 158 208 210 183 174 132
Height
791 789 786 784 782 779 777 774 772 769 766 763 761 759 758 757 756 756 752 746 746 748 749 749 748 744 741 738 732 731 778 814 799 787 733 706 713 703 707 738 755 758 744 746 755
792 789 787 784 781 779 776 774 771 768 765 763 760 757 756 756 755 751 744 744 745 747 749 746 744 741 741 735 732 741 785 801 754 734 719 707 706 707 736 756 775 762 757 754 753
792 790 787 784 781 779 776 773 769 767 764 762 759 757 756 756 753 734 738 741 744 745 748 745 740 738 742 731 730 731 771 747 740 711 709 711 707 700 739 759 753 756 750 749 752
792 790 787 784 781 778 775 772 769 766 763 760 759 757 756 759 753 737 738 740 743 746 746 742 739 743 746 743 723 738 722 734 711 705 710 712 703 709 704 731 726 737 738 744 748
792 790 787 783 780 777 774 771 768 765 762 760 758 757 757 753 737 736 737 740 743 747 745 741 742 742 749 734 724 730 721 712 704 706 705 703 713 714 720 713 725 733 742 742 740
793 790 786 783 780 776 773 769 767 764 761 759 758 757 759 753 736 736 738 741 743 745 741 739 738 733 736 730 728 715 712 712 708 708 706 709 716 718 722 715 720 727 732 734 739
792 789 786 783 780 776 771 768 765 763 760 759 758 759 753 742 736 738 740 740 741 741 737 737 734 733 730 737 714 716 727 716 715 710 709 703 735 742 727 719 718 722 727 730 736
792 789 785 782 778 774 770 766 763 761 759 758 758 760 747 733 735 736 739 738 737 738 736 734 735 733 731 721 721 728 724 746 714 717 703 711 750 734 712 723 716 719 722 726 733
790 787 784 780 777 773 768 764 760 759 758 758 759 758 740 732 733 732 734 733 735 736 737 734 735 739 732 743 746 729 748 735 766 734 709 714 734 715 705 713 706 709 715 721 727
789 785 782 778 774 770 765 761 755 757 757 761 759 757 733 728 724 729 731 732 734 735 738 740 741 747 742 744 764 739 734 760 805 756 715 718 716 710 709 698 705 706 716 724 729
789 785 781 776 772 768 762 760 757 758 755 738 733 729 720 722 725 726 729 730 733 735 751 740 754 755 740 728 726 722 726 731 765 715 721 725 716 706 701 703 700 700 713 715 718
789 785 780 776 771 767 764 757 756 758 752 730 723 720 717 719 728 723 727 735 738 748 740 744 755 731 721 719 723 724 731 733 717 707 715 719 721 708 727 742 737 723 711 710 707
789 784 779 775 770 766 762 757 758 755 753 723 710 712 713 718 722 719 722 726 735 743 737 746 726 712 725 727 733 731 735 731 729 711 704 716 729 718 742 736 728 709 698 700 708
789 784 780 774 773 766 758 758 758 756 762 725 709 707 705 712 723 708 713 722 727 738 730 729 714 718 727 732 726 744 715 721 726 733 748 710 751 718 734 736 729 724 705 705 710
788 783 780 779 774 765 759 759 758 756 784 698 704 697 701 717 700 707 704 717 732 727 727 730 722 725 730 727 717 734 710 719 724 734 737 733 743 733 720 750 742 732 724 702 710
786 782 778 776 772 764 762 761 758 774 772 711 701 712 713 711 705 697 705 709 711 721 714 717 695 706 713 707 710 710 720 727 730 735 761 736 739 740 742 745 735 718 705 709 717
782 779 776 777 765 763 763 760 773 773 705 710 707 703 710 712 712 707 718 725 737 748 743 719 717 703 705 719 708 718 737 766 773 765 763 724 731 723 704 711 711 714 710 715 724
777 772 768 767 766 765 765 766 777 730 723 690 691 692 708 700 702 706 717 729 719 720 726 739 744 712 698 715 721 723 734 757 779 767 765 741 776 748 694 697 697 697 705 713 727
773 766 763 760 761 766 764 770 754 734 707 700 696 716 711 700 696 701 714 719 711 711 732 728 722 681 687 695 707 719 738 718 742 730 747 740 732 714 697 705 707 707 709 716 728
774 765 752 751 757 762 764 761 733 714 703 706 722 710 720 701 702 704 704 698 704 696 696 710 732 695 685 687 696 711 703 743 738 772 770 734 732 742 730 738 718 716 716 718 728
772 753 735 745 754 755 758 747 730 712 708 719 722 721 708 703 693 700 701 689 684 689 686 699 717 716 691 706 717 715 724 717 717 726 749 750 768 740 744 733 733 719 715 719 728
769 756 740 744 755 747 747 737 726 712 703 715 718 718 714 702 702 700 701 688 667 675 696 692 709 731 712 687 689 693 706 712 737 744 724 728 758 728 752 744 726 722 715 716 726
768 746 738 742 752 743 734 730 719 717 711 716 720 716 708 713 721 704 697 672 668 678 694 687 713 737 728 703 689 703 698 698 708 717 734 745 744 735 738 741 714 709 715 718 731
772 747 736 735 735 734 727 721 720 706 707 710 711 709 713 719 707 716 704 681 679 681 693 693 708 721 731 716 705 710 701 696 702 726 725 720 738 734 731 728 727 734 720 725 733
769 747 733 732 731 731 728 723 714 715 706 711 716 712 712 724 718 715 704 692 682 694 693 699 722 707 701 695 693 696 696 694 703 699 719 711 720 737 736 733 734 743 727 731 735
771 763 752 745 739 734 724 726 720 708 708 714 719 709 708 716 713 716 707 704 700 688 699 696 721 712 714 696 690 698 689 686 688 691 694 693 749 740 739 737 742 750 740 739 738
783 777 769 756 745 737 725 717 717 712 703 699 702 708 712 705 698 693 687 692 690 700 699 706 711 720 729 703 698 710 693 689 685 683 688 716 733 741 750 748 747 749 739 739 739